Location: Newark
(44.6768°N, 22.5302°E)
Time: 12:59:07
(UTC+00:00)

AO-92 - Pass Details

Date: 05 July 2022
Orbit: 470 x 481 km, 97.4° (Epoch: 07 August)

Event Time Altitude Azimuth Distance (km) Brightness Sun altitude
Exits shadow 21:04:11 29° 231° (SW) 911 ? -19.5°
Maximum altitude 21:05:06 34° 263° (W) 819 ? -19.6°
Drops below altitude 10° 21:08:23 10° 329° (NNW) 1,669 ? -19.8°
Sets 21:10:36 0° 339° (NNW) 2,556 ? -19.9°
